User: anonymous   Login
Location: Drayton Valley
(53.2170°N, 114.9830°W)
Time: 06:19:18
(UTC-07:00)
Language:

Cosmos 1302 Rocket - Orbit

View from above orbital plane
View from above orbital plane
View from above satellite
View from above satellite

Ground track
Ground track

The orbit data is extracted from the following two-line orbital elements,

1 12792U 81084B   17326.58069560 +.00000104 +00000-0 +43666-4 0  9994
2 12792 074.0293 103.8163 0014030 346.4837 013.5938 14.37491295897540
Epoch (UTC): 22 November 2017 13:56:12
Eccentricity: 0.0014030
inclination: 74.0293°
perigee height: 757 km
apogee height: 777 km
right ascension of ascending node: 103.8163°
argument of perigee: 346.4837°
revolutions per day: 14.37491295
mean anomaly at epoch: 13.5938°
orbit number at epoch: 89754

The dashed part of the orbit path shows where the satellite is in the earth's shadow,  

DLR